SL-14 R/B, 24731

Orbit data source: Space-Track

SL-14 R/B, 24731 is space debris in LEO originally from a launch on Fri, 14 Feb 1997 UTC launched from the Plesetsk Missile And Space Complex (PKMTR). Debris objects in space refer to the collection of defunct objects orbiting the Earth. Examples of debris include non-operational satellites, rocket bodies, and fragments generated from explosions, collisions, or faulty payload assembly.

Loading next visibility...
Identifier
24731, 1997-006G
Orbit
LEO
Country
Flag of CISCIS
Related business
Manufacturer
Yuzhnoe
Mission
Spacecraft
Bus & Motor
S5M, Unknown motor
Mass
1,600 kg wet, 1,600 kg dry
Launch date (UTC)
1997-02-14 (29 years ago)
Launch vehicle
Unknown
Launch site
Plesetsk Missile And Space Complex (PKMTR)
Object type
Payload
Rocket body
Debris
Shape & HBR
Cyl, 1.4 m
Radar Cross Section
7.351 m², Large (>1 m²)

Expand to show TLE details & history
Last TLE update: 11 hours ago

TLE from 11 hours ago
0 SL-14 R/B
1 24731U 97006G   25307.74746685  .00000031  00000-0  12463-3 0  9996
2 24731  82.5963 121.3440 0041514 168.3124 203.1611 12.55269887315755
Epoch: 2025-11-03T17:56Z
TLE epoch observation values (Epoch: 2025-11-03T17:56:21.135Z)
Latitude
11.14731°
Longitude
170.47158°
Altitude
1,474.377 km
Speed
7.113 km/s
True Right ascension
08h 11m 12s
True Declination
11° 05' 18"
Sunlit
Object was in daylight at epoch
Visualization orbit readout
Latitude
Unknown
Longitude
Unknown
Altitude
Unknown
Speed
Unknown
Apparent Right ascension
Unknown
Apparent Declination
Unknown
Sunlit
N/A
Visualization observer readout
Local Sidereal Time
00:42:59
Azimuth
Unknown
Elevation
Unknown
Doppler factor
Unknown
Orbital elements
Apogee altitude
1,472.315 km
Perigee altitude
1,407.404 km
Semi-major axis
7,817.996 km
Eccentricity
0.00415
Inclination
82.5963°
RAAN
121.344°
Arg. of periapsis
168.3124°
True anomaly
202.97488°
Mean anomaly
203.1611°
Eccentric anomaly
203.0679°
Mean motion
3.13979 °/min
Orbital period
114.66 mins
BSTAR
0.00012463
Loading maneuver chart data...
Computing Atmospheric mass density...
Loading historical data...
Loading historical data...
Loading historical data...
Loading historical data...
Loading historical data...
Loading historical data...
Loading historical data...

Documentation

Showing up to 5 results
|